Location: The Saddle
(36.8333°N, 80.3417°W)
Time: 02:27:30
(UTC-04:00)

Vanguard 3 - Pass Details

Date: 22 May 2026
Orbit: 507 x 3204 km, 33.3° (Epoch: 9 June)

Event Time Altitude Azimuth Distance (km) Brightness Sun altitude
Rises 09:25:07 0° 182° (S) 4,649 11.0 37.2°
Reaches altitude 10° 09:29:33 10° 162° (SSE) 4,161 11.1 38.1°
Maximum altitude 09:36:08 17° 127° (SE) 4,277 11.8 39.4°
Drops below altitude 10° 09:44:23 10° 95° (E) 5,468 12.5 41.0°
Sets 09:51:45 0° 79° (E) 6,892 12.6 42.5°
